Weather Roundup
Issued by NWS

Home | Current Version | Previous Version | Graphics & Text | Print | Product List | Glossary Off
Versions: 1 2 3 4 5 6 7 8 9 10 11 12 13 14 15 16 17 18 19 20 21 22 23 24 25 26 27 28 29 30 31 32 33 34 35 36 37 38 39 40 41 42 43 44 45 46 47 48 49 50

093
NZUS93 KARX 260959
HRRWXR

CURRENT HOURLY OBSERVATIONS ACROSS
MUCH OF THE UPPER MISSISSIPPI VALLEY
NATIONAL WEATHER SERVICE LA CROSSE WI
500 AM CDT FRI MAY 26 2017


...SOUTHEAST MINNESOTA...


CITY           SKY/WX    TMP DP  RH WIND       PRES   REMARKS
ROCHESTER      CLOUDY    53  51  93 SE10      29.74S
ROCHESTER/MAYO FAIR      57  54  88 SE8       29.74S
WINONA         CLEAR     55  54  94 CALM      29.75S
AUSTIN         CLOUDY    55  50  82 S3        29.72S
ALBERT LEA     PTCLDY    57  52  82 S5        29.71S
DODGE CENTER   CLOUDY    54  50  87 SE6       29.73S
PRESTON        CLOUDY    55  51  86 S7        29.75R
OWATONNA       PTCLDY    57  50  77 SE8       29.71S
FARIBAULT      CLOUDY    59  52  77 SE7       29.70F
$$

...ELSEWHERE IN MINNESOTA...


CITY           SKY/WX    TMP DP  RH WIND       PRES   REMARKS
MINNEAPOLIS    CLOUDY    61  52  72 SE8       29.69F
INTNL FALLS    CLOUDY    53  50  89 SE9       29.65F
DULUTH         CLOUDY    49  47  93 E7        29.73F
RED WING       MOCLDY    61  52  72 SE7       29.72S
REDWOOD FALLS  CLEAR     55  50  83 CALM      29.67R
MANKATO        CLOUDY    58  52  80 SE9       29.69S
WORTHINGTON    MOCLDY    56  51  84 S7        29.69R
FAIRMONT       CLOUDY    58  52  80 S7        29.69S
$$

...SOUTHWEST WISCONSIN...


CITY           SKY/WX    TMP DP  RH WIND       PRES   REMARKS
LA CROSSE      CLEAR     59  57  93 SE8       29.75F
PRAIRIE DU CHI CLEAR     55  52  90 SE3       29.78S FOG
BOSCOBEL       FOG       54  53  97 CALM      29.80S VSB 1/2
LONE ROCK      NOT AVBL
PLATTEVILLE    CLEAR     56  55  97 SE5       29.81S
FORT MC COY    CLOUDY    54  54 100 CALM      29.79S FOG
CAMP DOUGLAS   CLOUDY    57  57 100 SE5       29.79S
MAUSTON-NEW LI CLOUDY    57  56  99 CALM      29.79F FOG
VIROQUA        FAIR      55  54  94 MISG      29.78F
WIS DELLS      CLOUDY    55  53  92 CALM      29.81R
$$

...ELSEWHERE IN WISCONSIN...


CITY           SKY/WX    TMP DP  RH WIND       PRES   REMARKS
MILWAUKEE      CLOUDY    55  53  93 W3        29.83R
MADISON        CLOUDY    56  53  90 S3        29.81S
GREEN BAY      CLOUDY    49  49 100 CALM      29.82S
EAU CLAIRE     CLOUDY    59  54  83 SE7       29.75F
BLACK RVR FLS  CLOUDY    56  56 100 CALM      29.77F FOG
MEDFORD        LGT RAIN  55  53  91 CALM      29.81R
WAUSAU         LGT RAIN  55  52  89 S6        29.82R
WIS RAPIDS     LGT RAIN  56  54  93 E5        29.82S
MARSHFIELD     CLOUDY    56  54  93 NE7       29.79F
RICE LAKE      CLOUDY    58  54  85 SE6       29.77S
$$

...NORTHEAST IOWA...


CITY           SKY/WX    TMP DP  RH WIND       PRES   REMARKS
WATERLOO       CLOUDY    57  52  83 E6        29.72F
DUBUQUE        CLOUDY    56  53  90 SE5       29.79F
DECORAH        CLOUDY    57  54  88 SE8       29.74F
MASON CITY     CLEAR     52  48  86 SE7       29.73S
CHARLES CITY   CLEAR     55  54  94 SE10      29.73S
OELWEIN        PTCLDY    55  55 100 SE8       29.75F
$$

...ELSEWHERE IN IOWA...


CITY           SKY/WX    TMP DP  RH WIND       PRES   REMARKS
DES MOINES     CLOUDY    61  53  75 E8        29.67F
IOWA CITY      CLOUDY    60  54  80 E6        29.76F
FORT DODGE     CLOUDY    57  50  77 SE6       29.70S
MARSHALLTOWN   CLOUDY    56  53  90 E9        29.70F
CEDAR RAPIDS   PTCLDY    57  56  96 E10       29.74F
$$

...NORTHERN ILLINOIS...


CITY           SKY/WX    TMP DP  RH WIND       PRES   REMARKS
CHICAGO-OHARE  CLOUDY    54  50  86 CALM      29.82R
CHICAGO-MIDWAY CLOUDY    55  51  86 CALM      29.83R
MOLINE         MOCLDY    58  54  86 NE8       29.77F
ROCKFORD       CLOUDY    56  53  90 CALM      29.84R
PEORIA         PTCLDY    55  54  96 E3        29.81S
$$

NOTE: "FAIR" INDICATES FEW OR NO CLOUDS BELOW 12,000 FEET WITH NO
SIGNIFICANT WEATHER AND/OR OBSTRUCTIONS TO VISIBILITY. WIND
SPEEDS ARE IN MILES-PER-HOUR.




USA.gov is the U.S. government's official web portal to all federal, state and local government web resources and services.